FW8265 Weather Reports


Display with metric or nautical units.
time (UTC)temp
F
wind
direction
speed
MPH
gust
MPH
rain 1hr
in
rain 24hr
in
rain mn
in
humidity
%
barometer
mb
20260505023053 67 0 1.0 9.0 0.00 0.00 0.00 65 1006.5
20260505021551 67 0 0.0 4.0 0.00 0.00 0.00 64 1006.3
20260505020049 68 156 0.0 5.0 0.00 0.00 0.00 63 1006.0
20260505014603 68 0 0.0 4.0 0.00 0.00 0.00 62 1006.0
20260505013051 69 0 0.0 4.0 0.00 0.00 0.00 61 1005.8
20260505011550 69 107 0.0 4.0 0.00 0.00 0.00 60 1005.7
20260505010055 69 0 0.0 4.0 0.00 0.00 0.00 59 1005.8
20260505004548 70 0 0.0 6.0 0.00 0.00 0.00 58 1005.7
20260505003047 71 0 1.0 5.0 0.00 0.00 0.00 57 1005.6
20260505001603 72 0 0.0 4.0 0.00 0.00 0.00 55 1005.8
20260505000107 72 0 0.0 4.0 0.00 0.00 0.00 54 1006.0
20260504234611 73 159 1.0 5.0 0.00 0.00 0.00 52 1006.2
20260504233050 74 0 0.0 4.0 0.00 0.00 0.00 50 1006.3
20260504231553 74 0 2.0 7.0 0.00 0.00 0.00 48 1006.6
20260504230050 75 150 1.0 17.0 0.00 0.00 0.00 48 1006.6
20260504224606 76 225 1.0 9.0 0.00 0.00 0.00 49 1006.6
20260504223047 76 270 3.0 14.0 0.00 0.00 0.00 48 1006.7
20260504221552 76 126 1.0 8.0 0.00 0.00 0.00 51 1006.6
20260504220058 75 0 0.0 9.0 0.00 0.00 0.00 53 1006.8
20260504214551 75 148 2.0 9.0 0.00 0.00 0.00 52 1006.7
20260504213109 76 161 1.0 7.0 0.00 0.00 0.00 52 1007.2
20260504211547 76 0 1.0 9.0 0.00 0.00 0.00 52 1007.2
20260504210049 77 342 1.0 8.0 0.00 0.00 0.00 52 1007.4
20260504204552 77 0 1.0 6.0 0.00 0.00 0.00 54 1007.5
20260504203112 76 184 0.0 8.0 0.00 0.00 0.00 56 1007.6
20260504201551 77 156 1.0 7.0 0.00 0.00 0.00 51 1007.9
20260504200049 76 171 1.0 7.0 0.00 0.00 0.00 51 1008.0
20260504194602 76 54 1.0 5.0 0.00 0.00 0.00 52 1008.3
20260504193057 74 0 0.0 7.0 0.00 0.00 0.00 60 1008.8
20260504191549 74 271 1.0 9.0 0.00 0.00 0.00 59 1008.9
20260504184605 71 0 2.0 7.0 0.00 0.00 0.00 62 1009.4
20260504183052 70 253 1.0 7.0 0.00 0.00 0.00 65 1009.2
20260504181549 69 151 3.0 11.0 0.00 0.00 0.00 65 1009.1
20260504180051 68 0 1.0 8.0 0.00 0.00 0.00 64 1008.9
20260504174555 68 219 5.0 14.0 0.00 0.00 0.00 63 1008.9
20260504173056 68 0 2.0 9.0 0.00 0.00 0.00 63 1008.9
20260504171552 69 207 2.0 10.0 0.00 0.00 0.00 62 1008.6
20260504090117 52 0 1.0 7.0 0.00 0.00 0.00 68 1010.7
20260504081555 51 0 1.0 8.0 0.00 0.00 0.00 68 1010.9
20260504044601 53 157 0.0 6.0 0.00 0.00 0.00 64 1012.8
20260504043050 52 0 0.0 4.0 0.00 0.00 0.00 64 1012.9
20260504041549 52 0 0.0 4.0 0.00 0.00 0.00 65 1013.0
20260504040052 52 0 0.0 4.0 0.00 0.00 0.00 65 1013.2
20260504034552 53 0 0.0 3.0 0.00 0.00 0.00 65 1013.3
20260504033056 53 0 0.0 5.0 0.00 0.00 0.00 64 1013.4
20260504031546 54 0 0.0 5.0 0.00 0.00 0.00 62 1013.4
20260504030051 54 0 0.0 2.0 0.00 0.00 0.00 61 1013.5
20260504024551 55 134 0.0 4.0 0.00 0.00 0.00 60 1013.6